N9NDF Weather Reports


time (UTC)temp
C
wind
direction
speed
KPH
gust
KPH
rain 1hr
cm
rain 24hr
cm
rain mn
cm
humidity
%
barometer
mb
20260504120252 11 0 0.0 1.6 0.00 0.00 0.00 91 983.6
20260504120202 11 0 0.0 1.6 0.00 0.00 0.00 91 983.6
20260504120152 11 0 0.0 1.6 0.00 0.00 0.00 91 983.6
20260504110704 10 0 0.0 1.6 0.00 0.00 0.00 93 983.6
20260504110652 10 0 0.0 1.6 0.00 0.00 0.00 93 983.6
20260504110552 10 0 0.0 1.6 0.00 0.00 0.00 93 983.6
20260504110451 10 0 0.0 1.6 0.00 0.00 0.00 93 983.6
20260504110338 10 0 0.0 1.6 0.00 0.00 0.00 93 983.6
20260504110238 10 0 0.0 1.6 0.00 0.00 0.00 93 983.7
20260504110138 10 0 0.0 1.6 0.00 0.00 0.00 93 983.7
20260504100609 10 223 0.0 1.6 0.00 0.00 0.00 91 983.9
20260504100512 10 0 0.0 1.6 0.00 0.00 0.00 91 984.0
20260504100409 10 0 0.0 1.6 0.00 0.00 0.00 91 984.0
20260504100309 10 0 0.0 1.6 0.00 0.00 0.00 91 984.0
20260504100137 10 0 0.0 1.6 0.00 0.00 0.00 91 984.0
20260504090125 10 0 0.0 1.6 0.00 0.00 0.00 89 984.3
20260504081939 10 0 0.0 3.2 0.00 0.00 0.00 89 984.4
20260504081840 10 0 0.0 3.2 0.00 0.00 0.00 89 984.4
20260504081740 10 211 0.0 3.2 0.00 0.00 0.00 89 984.5
20260504081639 10 0 0.0 3.2 0.00 0.00 0.00 89 984.5
20260504081607 10 0 0.0 3.2 0.00 0.00 0.00 89 984.5
20260504081540 10 0 0.0 3.2 0.00 0.00 0.00 89 984.5
20260504081439 10 0 0.0 3.2 0.00 0.00 0.00 89 984.4
20260504081339 10 0 0.0 1.6 0.00 0.00 0.00 88 984.4
20260504081240 10 0 0.0 1.6 0.00 0.00 0.00 88 984.4
20260504081139 10 0 0.0 3.2 0.00 0.00 0.00 88 984.3
20260504081106 10 0 0.0 3.2 0.00 0.00 0.00 88 984.3
20260504081040 10 0 0.0 3.2 0.00 0.00 0.00 88 984.3
20260504080940 10 0 0.0 3.2 0.00 0.00 0.00 88 984.3
20260504080840 10 0 0.0 3.2 0.00 0.00 0.00 88 984.3
20260504080753 10 0 0.0 3.2 0.00 0.00 0.00 88 984.3
20260504080639 10 0 0.0 3.2 0.00 0.00 0.00 88 984.3
20260504080606 10 0 0.0 3.2 0.00 0.00 0.00 88 984.3
20260504080543 10 0 0.0 3.2 0.00 0.00 0.00 88 984.4
20260504080439 10 0 0.0 3.2 0.00 0.00 0.00 88 984.4
20260504080348 10 0 0.0 3.2 0.00 0.00 0.00 88 984.4
20260504080240 10 0 0.0 3.2 0.00 0.00 0.00 88 984.4
20260504080139 10 0 0.0 1.6 0.00 0.00 0.00 88 984.4
20260504080107 10 0 0.0 1.6 0.00 0.00 0.00 88 984.4
20260504070334 11 0 0.0 3.2 0.00 0.00 0.00 85 985.0
20260504070232 11 356 0.0 3.2 0.00 0.00 0.00 85 985.0
20260504070132 11 0 0.0 3.2 0.00 0.00 0.00 85 985.0
20260504070105 11 357 0.0 3.2 0.00 0.00 0.00 85 985.0
20260504060226 11 0 0.0 0.0 0.00 0.00 0.00 84 985.2
20260504060119 11 0 0.0 0.0 0.00 0.00 0.00 84 985.3
20260504050724 12 0 0.0 1.6 0.00 0.00 0.00 82 985.8
20260504050609 12 0 0.0 1.6 0.00 0.00 0.00 82 985.9
20260504050524 12 0 0.0 1.6 0.00 0.00 0.00 82 985.9
20260504050424 12 0 0.0 1.6 0.00 0.00 0.00 82 985.9
20260504050324 12 0 0.0 1.6 0.00 0.00 0.00 82 985.9
20260504050224 12 185 0.0 1.6 0.00 0.00 0.00 82 985.9
20260504050107 12 0 0.0 0.0 0.00 0.00 0.00 82 985.9
20260504050025 12 0 0.0 0.0 0.00 0.00 0.00 82 985.9
20260504045924 12 0 0.0 0.0 0.00 0.00 0.00 82 985.9
20260504045823 12 0 0.0 0.0 0.00 0.00 0.00 82 985.9
20260504045724 12 0 0.0 3.2 0.00 0.00 0.00 82 985.9
20260504045637 12 0 0.0 3.2 0.00 0.00 0.00 82 985.9
20260504045604 12 0 0.0 3.2 0.00 0.00 0.00 82 985.9
20260504045524 12 0 0.0 3.2 0.00 0.00 0.00 81 985.9
20260504045425 12 0 0.0 3.2 0.00 0.00 0.00 81 985.9
20260504045324 12 0 0.0 3.2 0.00 0.00 0.00 81 985.9
20260504045224 12 0 0.0 3.2 0.00 0.00 0.00 81 985.9
20260504045102 12 0 0.0 3.2 0.00 0.00 0.00 81 985.9
20260504045024 12 0 0.0 3.2 0.00 0.00 0.00 81 985.9
20260504044924 12 0 0.0 3.2 0.00 0.00 0.00 81 985.9
20260504044832 12 0 0.0 1.6 0.00 0.00 0.00 81 985.9
20260504044824 12 0 0.0 3.2 0.00 0.00 0.00 81 985.9
20260504044732 12 351 0.0 3.2 0.00 0.00 0.00 81 985.9
20260504044718 12 0 0.0 1.6 0.00 0.00 0.00 81 985.9
20260504044520 12 0 0.0 1.6 0.00 0.00 0.00 81 985.9
20260504044421 12 0 0.0 1.6 0.00 0.00 0.00 81 985.9
20260504044321 12 0 0.0 1.6 0.00 0.00 0.00 81 985.9
20260504044220 12 0 0.0 1.6 0.00 0.00 0.00 81 985.9
20260504044103 12 0 0.0 1.6 0.00 0.00 0.00 81 985.9
20260504044021 12 161 0.0 1.6 0.00 0.00 0.00 80 985.9
20260504043921 12 0 0.0 1.6 0.00 0.00 0.00 80 985.9
20260504043823 12 0 0.0 0.0 0.00 0.00 0.00 79 986.0
20260504043818 12 352 0.0 1.6 0.00 0.00 0.00 80 985.9
20260504043731 12 0 0.0 1.6 0.00 0.00 0.00 80 985.9
20260504043706 12 0 0.0 0.0 0.00 0.00 0.00 80 985.9
20260504043518 12 0 0.0 0.0 0.00 0.00 0.00 80 985.9
20260504043445 12 0 0.0 0.0 0.00 0.00 0.00 79 986.0
20260504043317 12 0 0.0 0.0 0.00 0.00 0.00 79 986.0
20260504043229 12 0 0.0 0.0 0.00 0.00 0.00 79 986.0
20260504043218 12 0 0.0 0.0 0.00 0.00 0.00 79 986.0
20260504043017 12 0 0.0 0.0 0.00 0.00 0.00 79 986.0
20260504042913 13 0 0.0 0.0 0.00 0.00 0.00 79 986.0
20260504042813 13 0 0.0 0.0 0.00 0.00 0.00 79 986.0
20260504042710 13 0 0.0 0.0 0.00 0.00 0.00 79 986.0
20260504042626 13 0 0.0 0.0 0.00 0.00 0.00 78 986.0
20260504042614 13 0 0.0 0.0 0.00 0.00 0.00 78 986.0
20260504042544 13 0 0.0 0.0 0.00 0.00 0.00 78 986.0
20260504042508 13 0 0.0 0.0 0.00 0.00 0.00 78 986.0
20260504042437 13 0 0.0 0.0 0.00 0.00 0.00 78 986.0
20260504042307 13 0 0.0 0.0 0.00 0.00 0.00 78 986.0
20260504042226 13 0 0.0 0.0 0.00 0.00 0.00 78 986.0
20260504042211 13 0 0.0 0.0 0.00 0.00 0.00 78 986.0
20260504042008 13 0 0.0 0.0 0.00 0.00 0.00 78 986.0
20260504041908 13 0 0.0 0.0 0.00 0.00 0.00 77 986.0
20260504041808 13 0 0.0 0.0 0.00 0.00 0.00 77 986.0
20260504041708 13 0 0.0 0.0 0.00 0.00 0.00 77 986.0
20260504041621 13 0 0.0 0.0 0.00 0.00 0.00 76 986.0
20260504041614 13 0 0.0 0.0 0.00 0.00 0.00 77 986.0
20260504041605 13 0 0.0 0.0 0.00 0.00 0.00 77 986.0
20260504041507 13 0 0.0 0.0 0.00 0.00 0.00 77 986.0
20260504041447 13 0 0.0 0.0 0.00 0.00 0.00 77 986.0
20260504041307 13 0 0.0 0.0 0.00 0.00 0.00 77 986.0
20260504041241 13 0 0.0 0.0 0.00 0.00 0.00 77 986.0
20260504041224 13 0 0.0 0.0 0.00 0.00 0.00 76 986.0
20260504041008 13 0 0.0 0.0 0.00 0.00 0.00 76 986.0
20260504040909 13 0 0.0 0.0 0.00 0.00 0.00 76 986.0
20260504040808 13 0 0.0 0.0 0.00 0.00 0.00 76 986.0
20260504040708 13 0 0.0 0.0 0.00 0.00 0.00 75 986.0
20260504040613 13 0 0.0 0.0 0.00 0.00 0.00 75 986.0
20260504040604 13 0 0.0 0.0 0.00 0.00 0.00 75 986.0
20260504040508 13 0 0.0 0.0 0.00 0.00 0.00 75 986.0
20260504040408 13 0 0.0 0.0 0.00 0.00 0.00 75 986.0
20260504040307 13 0 0.0 0.0 0.00 0.00 0.00 75 986.1
20260504040208 13 0 0.0 0.0 0.00 0.00 0.00 75 986.1
20260504040113 13 0 0.0 0.0 0.00 0.00 0.00 74 986.1
20260504040104 13 0 0.0 0.0 0.00 0.00 0.00 74 986.1
20260504040008 13 0 0.0 0.0 0.00 0.00 0.00 74 986.1
20260504035908 13 0 0.0 0.0 0.00 0.00 0.00 74 986.1
20260504035808 13 0 0.0 0.0 0.00 0.00 0.00 74 986.1
20260504035708 13 0 0.0 1.6 0.00 0.00 0.00 74 986.1
20260504035614 13 0 0.0 1.6 0.00 0.00 0.00 74 986.1
20260504035604 13 0 0.0 1.6 0.00 0.00 0.00 74 986.1
20260504035508 13 0 0.0 1.6 0.00 0.00 0.00 74 986.1
20260504035408 13 0 0.0 3.2 0.00 0.00 0.00 74 986.1
20260504035320 13 0 0.0 3.2 0.00 0.00 0.00 74 986.1
20260504035309 13 0 0.0 3.2 0.00 0.00 0.00 74 986.1
20260504035226 13 0 0.0 3.2 0.00 0.00 0.00 74 986.1
20260504035211 13 0 0.0 3.2 0.00 0.00 0.00 74 986.1
20260504035009 13 0 0.0 3.2 0.00 0.00 0.00 74 986.1
20260504034909 13 0 0.0 3.2 0.00 0.00 0.00 74 986.1
20260504034809 13 0 0.0 3.2 0.00 0.00 0.00 74 986.1
20260504034709 13 0 0.0 3.2 0.00 0.00 0.00 74 986.1
20260504034614 13 0 0.0 3.2 0.00 0.00 0.00 74 986.1
20260504034605 13 0 0.0 3.2 0.00 0.00 0.00 74 986.1
20260504034508 13 0 0.0 3.2 0.00 0.00 0.00 74 986.1
20260504034406 13 271 0.0 1.6 0.00 0.00 0.00 74 986.1
20260504034305 13 0 0.0 1.6 0.00 0.00 0.00 73 986.1
20260504034205 13 0 0.0 1.6 0.00 0.00 0.00 73 986.1
20260504034110 13 0 0.0 1.6 0.00 0.00 0.00 73 986.2
20260504034102 13 0 0.0 1.6 0.00 0.00 0.00 73 986.2
20260504034005 13 0 0.0 1.6 0.00 0.00 0.00 73 986.2
20260504033906 13 0 0.0 1.6 0.00 0.00 0.00 73 986.2
20260504033806 13 0 0.0 1.6 0.00 0.00 0.00 73 986.2
20260504033706 14 0 0.0 1.6 0.00 0.00 0.00 73 986.2
20260504033610 14 0 0.0 1.6 0.00 0.00 0.00 73 986.2
20260504033602 14 0 0.0 1.6 0.00 0.00 0.00 73 986.2
20260504033506 14 0 0.0 1.6 0.00 0.00 0.00 73 986.2
20260504033405 14 0 0.0 1.6 0.00 0.00 0.00 73 986.2
20260504033305 14 0 0.0 1.6 0.00 0.00 0.00 73 986.2
20260504033206 14 0 0.0 1.6 0.00 0.00 0.00 73 986.2
20260504033107 14 0 0.0 1.6 0.00 0.00 0.00 73 986.3
20260504033100 14 0 0.0 1.6 0.00 0.00 0.00 73 986.3
20260504033005 14 0 0.0 1.6 0.00 0.00 0.00 73 986.3
20260504032906 14 0 0.0 1.6 0.00 0.00 0.00 73 986.3
20260504032806 14 0 0.0 1.6 0.00 0.00 0.00 73 986.3
20260504032706 14 0 0.0 0.0 0.00 0.00 0.00 73 986.3
20260504032602 14 0 0.0 1.6 0.00 0.00 0.00 73 986.3
20260504032537 14 0 0.0 3.2 0.00 0.00 0.00 72 986.2
20260504032504 14 0 0.0 1.6 0.00 0.00 0.00 73 986.3
20260504032428 14 0 0.0 1.6 0.00 0.00 0.00 72 986.3
20260504032304 14 0 0.0 1.6 0.00 0.00 0.00 73 986.3
20260504032216 14 0 0.0 3.2 0.00 0.00 0.00 72 986.3
20260504032151 14 0 0.0 3.2 0.00 0.00 0.00 72 986.3
20260504032004 14 0 0.0 3.2 0.00 0.00 0.00 72 986.2
20260504031931 14 0 0.0 3.2 0.00 0.00 0.00 72 986.2
20260504031804 14 0 0.0 3.2 0.00 0.00 0.00 72 986.2
20260504031724 14 0 0.0 3.2 0.00 0.00 0.00 72 986.2
20260504031710 14 0 0.0 3.2 0.00 0.00 0.00 72 986.2
20260504031505 14 0 0.0 3.2 0.00 0.00 0.00 72 986.2
20260504031405 14 0 0.0 3.2 0.00 0.00 0.00 72 986.2
20260504031305 14 0 0.0 3.2 0.00 0.00 0.00 72 986.2
20260504031204 14 149 0.0 1.6 0.00 0.00 0.00 72 986.2
20260504031057 14 0 0.0 1.6 0.00 0.00 0.00 72 986.2
20260504031005 14 0 0.0 1.6 0.00 0.00 0.00 72 986.3
20260504030904 14 0 0.0 1.6 0.00 0.00 0.00 71 986.3
20260504030804 14 0 0.0 0.0 0.00 0.00 0.00 71 986.3
20260504030716 14 0 0.0 0.0 0.00 0.00 0.00 71 986.3
20260504030558 14 0 0.0 0.0 0.00 0.00 0.00 71 986.3
20260504030505 14 0 0.0 0.0 0.00 0.00 0.00 71 986.3
20260504030404 14 0 0.0 0.0 0.00 0.00 0.00 71 986.3
20260504030305 14 0 0.0 0.0 0.00 0.00 0.00 71 986.3
20260504030204 15 0 0.0 0.0 0.00 0.00 0.00 71 986.3
20260504030101 15 0 0.0 1.6 0.00 0.00 0.00 71 986.3
20260504030007 15 0 0.0 1.6 0.00 0.00 0.00 71 986.3
20260504025904 15 0 0.0 1.6 0.00 0.00 0.00 71 986.3
20260504025805 15 0 0.0 1.6 0.00 0.00 0.00 70 986.3
20260504025705 15 0 0.0 1.6 0.00 0.00 0.00 70 986.3
20260504025559 15 0 0.0 1.6 0.00 0.00 0.00 70 986.3
20260504025515 15 0 0.0 1.6 0.00 0.00 0.00 70 986.3
20260504025404 15 0 0.0 1.6 0.00 0.00 0.00 70 986.3
20260504025305 15 0 0.0 1.6 0.00 0.00 0.00 70 986.3
20260504025057 15 0 0.0 1.6 0.00 0.00 0.00 70 986.2
20260504025005 15 280 0.0 1.6 0.00 0.00 0.00 70 986.2
20260504024905 15 0 0.0 1.6 0.00 0.00 0.00 70 986.2
20260504024815 15 0 0.0 1.6 0.00 0.00 0.00 69 986.3
20260504024804 15 0 0.0 1.6 0.00 0.00 0.00 70 986.3
20260504024725 15 0 0.0 1.6 0.00 0.00 0.00 70 986.3
20260504024711 15 0 0.0 1.6 0.00 0.00 0.00 69 986.3
20260504024505 15 0 0.0 1.6 0.00 0.00 0.00 70 986.3
20260504024405 15 0 0.0 1.6 0.00 0.00 0.00 70 986.3
20260504024305 15 0 0.0 1.6 0.00 0.00 0.00 70 986.3
20260504024205 15 0 0.0 1.6 0.00 0.00 0.00 70 986.3
20260504024112 15 0 0.0 1.6 0.00 0.00 0.00 70 986.3
20260504024058 15 0 0.0 1.6 0.00 0.00 0.00 69 986.3
20260504024004 15 0 0.0 1.6 0.00 0.00 0.00 69 986.3
20260504023904 15 0 0.0 0.0 0.00 0.00 0.00 69 986.3
20260504023804 15 0 0.0 0.0 0.00 0.00 0.00 70 986.3
20260504023705 15 0 0.0 0.0 0.00 0.00 0.00 69 986.3
20260504023559 15 0 0.0 0.0 0.00 0.00 0.00 69 986.3
20260504023505 15 0 0.0 0.0 0.00 0.00 0.00 69 986.3
20260504023404 15 0 0.0 0.0 0.00 0.00 0.00 69 986.3
20260504023304 15 0 0.0 0.0 0.00 0.00 0.00 69 986.3
20260504023205 15 0 0.0 0.0 0.00 0.00 0.00 69 986.3
20260504023057 15 0 0.0 0.0 0.00 0.00 0.00 69 986.3
20260504023004 15 0 0.0 0.0 0.00 0.00 0.00 69 986.3
20260504022904 15 0 0.0 0.0 0.00 0.00 0.00 69 986.3
20260504022830 15 0 0.0 1.6 0.00 0.00 0.00 68 986.3
20260504022805 15 0 0.0 0.0 0.00 0.00 0.00 69 986.3
20260504022724 15 0 0.0 0.0 0.00 0.00 0.00 68 986.3
20260504022711 15 0 0.0 1.6 0.00 0.00 0.00 68 986.3
20260504022505 15 0 0.0 1.6 0.00 0.00 0.00 68 986.3
20260504022402 15 0 0.0 1.6 0.00 0.00 0.00 68 986.3
20260504022301 15 224 0.0 1.6 0.00 0.00 0.00 68 986.3
20260504022202 15 0 0.0 1.6 0.00 0.00 0.00 68 986.3
20260504022106 15 0 0.0 1.6 0.00 0.00 0.00 68 986.3
20260504022056 15 0 0.0 1.6 0.00 0.00 0.00 67 986.3
20260504022012 15 0 0.0 1.6 0.00 0.00 0.00 67 986.3
20260504021902 15 0 0.0 1.6 0.00 0.00 0.00 67 986.2
20260504021801 15 0 0.0 1.6 0.00 0.00 0.00 67 986.2
20260504021702 15 0 0.0 1.6 0.00 0.00 0.00 67 986.2
20260504021607 15 0 0.0 1.6 0.00 0.00 0.00 67 986.2
20260504021557 16 0 0.0 1.6 0.00 0.00 0.00 67 986.2
20260504021502 16 0 0.0 1.6 0.00 0.00 0.00 67 986.2
20260504021402 16 240 0.0 1.6 0.00 0.00 0.00 67 986.2
20260504021302 16 0 0.0 1.6 0.00 0.00 0.00 67 986.1
20260504021202 16 223 0.0 1.6 0.00 0.00 0.00 67 986.1
20260504021101 16 0 0.0 0.0 0.00 0.00 0.00 66 986.1
20260504021002 16 0 0.0 0.0 0.00 0.00 0.00 66 986.1
20260504020902 16 0 0.0 0.0 0.00 0.00 0.00 66 986.1
20260504020802 16 0 0.0 0.0 0.00 0.00 0.00 66 986.1
20260504020702 16 0 0.0 0.0 0.00 0.00 0.00 66 986.1
20260504020608 16 0 0.0 0.0 0.00 0.00 0.00 66 986.1
20260504020557 16 0 0.0 0.0 0.00 0.00 0.00 65 986.1
20260504020503 16 0 0.0 0.0 0.00 0.00 0.00 65 986.1
20260504020402 16 0 0.0 0.0 0.00 0.00 0.00 65 986.1
20260504020302 16 0 0.0 0.0 0.00 0.00 0.00 65 986.1
20260504020202 16 0 0.0 0.0 0.00 0.00 0.00 65 986.1
20260504020117 16 0 0.0 0.0 0.00 0.00 0.00 65 986.1
20260504020107 16 0 0.0 0.0 0.00 0.00 0.00 65 986.2
20260504020003 16 0 0.0 0.0 0.00 0.00 0.00 65 986.2
20260504015902 16 0 0.0 1.6 0.00 0.00 0.00 65 986.2
20260504015803 16 0 0.0 1.6 0.00 0.00 0.00 65 986.2
20260504015702 16 0 0.0 1.6 0.00 0.00 0.00 65 986.2
20260504015557 16 0 0.0 1.6 0.00 0.00 0.00 64 986.2
20260504015502 16 0 0.0 1.6 0.00 0.00 0.00 64 986.2
20260504015412 16 0 0.0 1.6 0.00 0.00 0.00 64 986.2
20260504015302 16 0 0.0 1.6 0.00 0.00 0.00 64 986.2
20260504015203 17 0 0.0 1.6 0.00 0.00 0.00 63 986.2
20260504015055 17 0 0.0 1.6 0.00 0.00 0.00 63 986.2
20260504015002 17 0 0.0 1.6 0.00 0.00 0.00 63 986.2
20260504014902 17 0 0.0 1.6 0.00 0.00 0.00 62 986.2
20260504014803 17 0 0.0 1.6 0.00 0.00 0.00 62 986.2
20260504014702 17 0 0.0 0.0 0.00 0.00 0.00 62 986.2
20260504014607 17 0 0.0 0.0 0.00 0.00 0.00 62 986.2
20260504014556 17 0 0.0 1.6 0.00 0.00 0.00 62 986.1
20260504014457 17 0 0.0 1.6 0.00 0.00 0.00 62 986.1
20260504014401 17 0 0.0 1.6 0.00 0.00 0.00 62 986.1
20260504014300 17 0 0.0 1.6 0.00 0.00 0.00 62 986.1
20260504014201 17 0 0.0 3.2 0.00 0.00 0.00 62 986.1
20260504014055 17 0 0.0 3.2 0.00 0.00 0.00 62 986.1
20260504014001 17 0 0.0 3.2 0.00 0.00 0.00 61 986.1
20260504013900 17 0 0.0 3.2 0.00 0.00 0.00 61 986.1
20260504013801 17 0 0.0 3.2 0.00 0.00 0.00 60 986.1
20260504013701 17 0 0.0 3.2 0.00 0.00 0.00 60 986.1
20260504013557 17 0 0.0 3.2 0.00 0.00 0.00 60 986.1
20260504013500 17 0 0.0 3.2 0.00 0.00 0.00 60 986.1
20260504013400 17 0 0.0 3.2 0.00 0.00 0.00 60 986.1
20260504013301 17 239 0.0 3.2 0.00 0.00 0.00 60 986.1
20260504013201 17 0 0.0 3.2 0.00 0.00 0.00 60 986.1
20260504013055 17 0 0.0 3.2 0.00 0.00 0.00 60 986.1
20260504013000 17 258 0.0 1.6 0.00 0.00 0.00 60 986.0
20260504012901 17 0 0.0 1.6 0.00 0.00 0.00 60 986.0
20260504012801 17 0 0.0 1.6 0.00 0.00 0.00 60 986.0
20260504012701 17 251 0.0 3.2 0.00 0.00 0.00 60 986.0
20260504012559 17 0 0.0 3.2 0.00 0.00 0.00 60 986.0
20260504012501 18 0 0.0 3.2 0.00 0.00 0.00 60 986.0
20260504012401 18 0 0.0 3.2 0.00 0.00 0.00 59 986.0
20260504012313 18 0 0.0 3.2 0.00 0.00 0.00 59 986.0
20260504012301 18 0 0.0 3.2 0.00 0.00 0.00 59 986.0
20260504012217 18 0 0.0 3.2 0.00 0.00 0.00 59 986.0
20260504012203 18 0 0.0 3.2 0.00 0.00 0.00 59 986.0
20260504012000 18 0 0.0 3.2 0.00 0.00 0.00 58 985.9
20260504011900 18 0 0.0 3.2 0.00 0.00 0.00 58 985.9
20260504011759 18 0 0.0 3.2 0.00 0.00 0.00 58 985.9
20260504011701 18 212 0.0 3.2 0.00 0.00 0.00 58 985.9
20260504011604 18 229 0.0 3.2 0.00 0.00 0.00 58 985.9
20260504011554 18 213 0.0 3.2 0.00 0.00 0.00 58 985.9
20260504011459 18 0 0.0 3.2 0.00 0.00 0.00 58 985.9
20260504011359 18 0 0.0 3.2 0.00 0.00 0.00 58 985.9
20260504011300 18 0 0.0 3.2 0.00 0.00 0.00 57 985.9
20260504011200 18 0 0.0 3.2 0.00 0.00 0.00 57 985.9
20260504011052 18 0 0.0 3.2 0.00 0.00 0.00 57 985.9
20260504011001 18 0 0.0 3.2 0.00 0.00 0.00 57 985.9
20260504010900 18 228 0.0 3.2 0.00 0.00 0.00 57 985.8
20260504010817 18 0 0.0 3.2 0.00 0.00 0.00 56 985.9
20260504010800 18 0 0.0 3.2 0.00 0.00 0.00 57 985.8
20260504010732 18 0 0.0 3.2 0.00 0.00 0.00 57 985.9
20260504010704 18 257 0.0 3.2 0.00 0.00 0.00 56 985.9
20260504010501 18 216 0.0 3.2 0.00 0.00 0.00 56 985.9
20260504010401 18 256 0.0 1.6 0.00 0.00 0.00 56 985.9
20260504010300 18 0 0.0 3.2 0.00 0.00 0.00 56 985.9
20260504010201 18 218 0.0 3.2 0.00 0.00 0.00 56 985.9
20260504010100 18 0 0.0 3.2 0.00 0.00 0.00 56 985.9
20260504010001 18 0 0.0 3.2 0.00 0.00 0.00 56 985.9
20260504005900 19 0 0.0 3.2 0.00 0.00 0.00 55 985.8
20260504005800 19 0 0.0 3.2 0.00 0.00 0.00 55 985.8
20260504005700 19 0 0.0 3.2 0.00 0.00 0.00 55 985.8
20260504005604 19 0 0.0 3.2 0.00 0.00 0.00 55 985.8
20260504005552 19 277 0.0 3.2 0.00 0.00 0.00 55 985.8
20260504005500 19 0 0.0 3.2 0.00 0.00 0.00 55 985.8
20260504005401 19 0 0.0 3.2 0.00 0.00 0.00 55 985.8
20260504005325 19 0 0.0 3.2 0.00 0.00 0.00 55 985.8
20260504005301 19 0 0.0 3.2 0.00 0.00 0.00 55 985.8
20260504005219 19 265 0.0 3.2 0.00 0.00 0.00 55 985.8
20260504005203 19 0 0.0 3.2 0.00 0.00 0.00 55 985.8
20260504005000 19 0 0.0 3.2 0.00 0.00 0.00 55 985.8
20260504004900 19 265 0.0 3.2 0.00 0.00 0.00 54 985.8
20260504004756 19 251 0.0 3.2 0.00 0.00 0.00 54 985.8
20260504004655 19 0 0.0 3.2 0.00 0.00 0.00 54 985.8
20260504004557 19 0 0.0 3.2 0.00 0.00 0.00 54 985.8
20260504004456 19 0 0.0 3.2 0.00 0.00 0.00 54 985.8
20260504004356 19 0 0.0 6.4 0.00 0.00 0.00 54 985.8
20260504004331 20 242 1.6 6.4 0.00 0.00 0.00 53 985.8
20260504004253 20 214 0.0 6.4 0.00 0.00 0.00 54 985.8
20260504004214 20 0 1.6 6.4 0.00 0.00 0.00 54 985.8
20260504004051 20 274 1.6 6.4 0.00 0.00 0.00 53 985.8
20260504003950 20 261 1.6 6.4 0.00 0.00 0.00 53 985.8
20260504003851 20 0 1.6 6.4 0.00 0.00 0.00 53 985.8
20260504003748 20 279 1.6 6.4 0.00 0.00 0.00 53 985.8
20260504003648 20 0 1.6 6.4 0.00 0.00 0.00 53 985.8
20260504003557 20 228 1.6 6.4 0.00 0.00 0.00 53 985.8
20260504003546 20 226 1.6 6.4 0.00 0.00 0.00 53 985.8
20260504003446 20 220 1.6 6.4 0.00 0.00 0.00 53 985.8
20260504003344 20 222 1.6 6.4 0.00 0.00 0.00 53 985.8
20260504003245 20 272 1.6 6.4 0.00 0.00 0.00 52 985.8
20260504003145 20 245 1.6 6.4 0.00 0.00 0.00 52 985.8
20260504003051 20 0 1.6 6.4 0.00 0.00 0.00 52 985.8
20260504003042 20 242 1.6 6.4 0.00 0.00 0.00 52 985.8
20260504002943 20 0 1.6 6.4 0.00 0.00 0.00 52 985.8
20260504002852 20 231 1.6 6.4 0.00 0.00 0.00 52 985.8
20260504002812 20 231 0.0 3.2 0.00 0.00 0.00 52 985.9
20260504002741 20 218 1.6 6.4 0.00 0.00 0.00 52 985.8
20260504002706 20 216 1.6 6.4 0.00 0.00 0.00 53 985.8
20260504002540 20 0 0.0 3.2 0.00 0.00 0.00 52 985.9
20260504002440 20 0 1.6 3.2 0.00 0.00 0.00 52 985.8
20260504002340 20 0 0.0 3.2 0.00 0.00 0.00 52 985.9
20260504002308 20 275 1.6 3.2 0.00 0.00 0.00 52 985.9
20260504002239 20 0 0.0 3.2 0.00 0.00 0.00 52 985.8
20260504002200 20 0 1.6 3.2 0.00 0.00 0.00 52 985.8
20260504002038 20 0 1.6 3.2 0.00 0.00 0.00 52 985.9
20260504001938 20 208 1.6 3.2 0.00 0.00 0.00 52 985.9
20260504001839 20 122 0.0 3.2 0.00 0.00 0.00 52 985.9
20260504001738 20 0 0.0 3.2 0.00 0.00 0.00 52 985.9
20260504001638 20 0 1.6 4.8 0.00 0.00 0.00 52 985.9
20260504001545 20 229 1.6 4.8 0.00 0.00 0.00 52 985.9
20260504001539 20 233 1.6 4.8 0.00 0.00 0.00 52 985.9
20260504001439 20 0 1.6 4.8 0.00 0.00 0.00 52 985.9
20260504001338 20 276 1.6 4.8 0.00 0.00 0.00 52 985.9
20260504001238 20 0 1.6 4.8 0.00 0.00 0.00 52 985.9
20260504001139 20 211 1.6 4.8 0.00 0.00 0.00 52 985.9
20260504001045 20 256 1.6 4.8 0.00 0.00 0.00 52 985.9
20260504001039 20 0 1.6 4.8 0.00 0.00 0.00 52 985.9
20260504000939 20 0 1.6 4.8 0.00 0.00 0.00 52 985.8
20260504000838 20 0 1.6 4.8 0.00 0.00 0.00 51 985.9
20260504000739 20 223 1.6 4.8 0.00 0.00 0.00 51 985.8
20260504000639 20 232 1.6 4.8 0.00 0.00 0.00 51 985.9
20260504000545 20 219 0.0 4.8 0.00 0.00 0.00 51 985.9
20260504000539 20 260 0.0 4.8 0.00 0.00 0.00 51 985.9
20260504000439 20 216 0.0 4.8 0.00 0.00 0.00 51 985.9
20260504000339 20 235 0.0 4.8 0.00 0.00 0.00 51 985.8
20260504000246 20 242 0.0 4.8 0.00 0.00 0.00 51 985.8
20260504000138 20 206 1.6 4.8 0.00 0.00 0.00 51 985.8
20260504000039 20 0 1.6 4.8 0.00 0.00 0.00 51 985.8
20260503235938 20 0 1.6 4.8 0.00 0.00 0.00 51 985.8
20260503235838 20 0 1.6 4.8 0.00 0.00 0.00 51 985.8
20260503235740 20 214 1.6 4.8 0.00 0.00 0.00 51 985.8
20260503235639 20 0 1.6 4.8 0.00 0.00 0.00 51 985.8
20260503235545 20 0 1.6 4.8 0.00 0.00 0.00 51 985.8
20260503235538 20 249 1.6 4.8 0.00 0.00 0.00 51 985.8
20260503235439 20 220 1.6 4.8 0.00 0.00 0.00 51 985.8
20260503235340 20 227 1.6 4.8 0.00 0.00 0.00 51 985.8
20260503235238 20 234 1.6 4.8 0.00 0.00 0.00 51 985.8
20260503235138 20 214 1.6 4.8 0.00 0.00 0.00 51 985.8
20260503235045 20 0 1.6 4.8 0.00 0.00 0.00 50 985.8
20260503235035 20 220 1.6 4.8 0.00 0.00 0.00 50 985.8
20260503234934 20 0 1.6 4.8 0.00 0.00 0.00 50 985.8
20260503234834 20 0 1.6 4.8 0.00 0.00 0.00 51 985.8
20260503234744 20 229 1.6 4.8 0.00 0.00 0.00 51 985.8
20260503234631 20 269 1.6 4.8 0.00 0.00 0.00 51 985.8
20260503234545 20 229 1.6 4.8 0.00 0.00 0.00 51 985.8
20260503234531 20 0 1.6 4.8 0.00 0.00 0.00 51 985.8
20260503234430 21 284 1.6 8.0 0.00 0.00 0.00 51 985.8
20260503234330 21 0 1.6 8.0 0.00 0.00 0.00 51 985.9
20260503234305 21 0 1.6 8.0 0.00 0.00 0.00 51 985.9
20260503234230 21 0 1.6 8.0 0.00 0.00 0.00 51 985.9
20260503234205 21 317 1.6 8.0 0.00 0.00 0.00 52 985.9
20260503234031 21 283 1.6 8.0 0.00 0.00 0.00 51 985.9
20260503233930 21 0 1.6 8.0 0.00 0.00 0.00 51 985.9
20260503233828 21 235 1.6 8.0 0.00 0.00 0.00 51 985.9
20260503233728 21 0 1.6 8.0 0.00 0.00 0.00 51 985.9
20260503233625 21 236 1.6 8.0 0.00 0.00 0.00 51 985.9
20260503233543 21 216 1.6 8.0 0.00 0.00 0.00 51 985.9
20260503233526 21 190 1.6 8.0 0.00 0.00 0.00 51 985.9
20260503233425 21 229 1.6 8.0 0.00 0.00 0.00 51 985.8
20260503233324 21 0 1.6 4.8 0.00 0.00 0.00 51 985.9
20260503233225 20 219 1.6 4.8 0.00 0.00 0.00 51 985.9
20260503233120 20 225 1.6 4.8 0.00 0.00 0.00 51 985.9
20260503233043 20 239 1.6 4.8 0.00 0.00 0.00 52 985.9
20260503233022 20 242 1.6 4.8 0.00 0.00 0.00 52 985.9
20260503232920 20 214 1.6 4.8 0.00 0.00 0.00 52 985.9
20260503232823 20 0 1.6 4.8 0.00 0.00 0.00 52 985.9
20260503232720 20 0 1.6 4.8 0.00 0.00 0.00 52 985.9
20260503232621 20 326 1.6 4.8 0.00 0.00 0.00 52 985.9
20260503232542 20 0 1.6 4.8 0.00 0.00 0.00 52 985.9
20260503232522 20 214 1.6 4.8 0.00 0.00 0.00 52 985.9
20260503232420 20 0 1.6 4.8 0.00 0.00 0.00 52 985.9
20260503232318 20 272 1.6 4.8 0.00 0.00 0.00 52 985.9
20260503232218 20 0 1.6 4.8 0.00 0.00 0.00 52 986.0
20260503232116 20 203 1.6 4.8 0.00 0.00 0.00 51 986.0
20260503232040 20 271 1.6 4.8 0.00 0.00 0.00 51 986.0
20260503232016 20 220 1.6 4.8 0.00 0.00 0.00 51 986.0
20260503231916 20 210 1.6 4.8 0.00 0.00 0.00 51 986.0
20260503231816 20 195 1.6 4.8 0.00 0.00 0.00 52 986.0
20260503231715 20 229 0.0 4.8 0.00 0.00 0.00 52 986.0
20260503231615 20 0 0.0 4.8 0.00 0.00 0.00 52 986.0
20260503231544 20 0 0.0 4.8 0.00 0.00 0.00 52 986.0
20260503231515 20 137 0.0 4.8 0.00 0.00 0.00 52 986.0
20260503231416 20 214 0.0 4.8 0.00 0.00 0.00 52 986.0
20260503231315 20 0 1.6 4.8 0.00 0.00 0.00 53 986.0
20260503231215 20 0 1.6 6.4 0.00 0.00 0.00 52 986.0
20260503231116 20 0 1.6 6.4 0.00 0.00 0.00 52 986.0
20260503231040 20 0 1.6 6.4 0.00 0.00 0.00 52 986.0
20260503231016 20 231 1.6 6.4 0.00 0.00 0.00 52 986.0
20260503230916 20 239 1.6 6.4 0.00 0.00 0.00 52 986.0
20260503230816 20 0 1.6 6.4 0.00 0.00 0.00 52 986.0
20260503230716 21 0 1.6 6.4 0.00 0.00 0.00 51 986.0
20260503230615 21 64 1.6 6.4 0.00 0.00 0.00 51 986.0
20260503230540 21 217 1.6 6.4 0.00 0.00 0.00 51 986.0
20260503230516 21 225 1.6 6.4 0.00 0.00 0.00 51 986.0
20260503230416 21 234 1.6 6.4 0.00 0.00 0.00 51 986.0
20260503230316 21 230 1.6 6.4 0.00 0.00 0.00 51 986.1
20260503230216 21 187 0.0 3.2 0.00 0.00 0.00 51 986.1
20260503230116 21 0 1.6 3.2 0.00 0.00 0.00 51 986.1
20260503230040 21 0 1.6 3.2 0.00 0.00 0.00 50 986.1
20260503230016 21 235 1.6 3.2 0.00 0.00 0.00 50 986.1
20260503225916 21 236 1.6 4.8 0.00 0.00 0.00 51 986.1
20260503225816 21 0 1.6 4.8 0.00 0.00 0.00 51 986.1
20260503225716 21 238 1.6 4.8 0.00 0.00 0.00 50 986.1
20260503225616 21 211 1.6 4.8 0.00 0.00 0.00 51 986.1
20260503225541 21 171 1.6 4.8 0.00 0.00 0.00 50 986.1
20260503225516 21 0 1.6 4.8 0.00 0.00 0.00 50 986.1
20260503225417 21 222 1.6 4.8 0.00 0.00 0.00 50 986.1
20260503225323 21 0 1.6 4.8 0.00 0.00 0.00 50 986.1
20260503225315 21 345 1.6 4.8 0.00 0.00 0.00 50 986.1
20260503225215 21 0 1.6 4.8 0.00 0.00 0.00 50 986.1
20260503225158 21 0 1.6 4.8 0.00 0.00 0.00 50 986.1
20260503225014 21 222 1.6 4.8 0.00 0.00 0.00 50 986.1
20260503224912 21 236 1.6 4.8 0.00 0.00 0.00 50 986.1
20260503224811 21 275 1.6 4.8 0.00 0.00 0.00 50 986.1
20260503224709 21 200 1.6 4.8 0.00 0.00 0.00 49 986.1
20260503224608 21 227 1.6 4.8 0.00 0.00 0.00 50 986.1
20260503224541 21 210 1.6 4.8 0.00 0.00 0.00 50 986.1
20260503224508 21 293 1.6 4.8 0.00 0.00 0.00 50 986.1
20260503224409 21 224 1.6 4.8 0.00 0.00 0.00 50 986.1
20260503224309 20 216 1.6 4.8 0.00 0.00 0.00 50 986.1
20260503224210 20 310 1.6 4.8 0.00 0.00 0.00 50 986.1
20260503224109 20 0 1.6 4.8 0.00 0.00 0.00 50 986.1
20260503224040 20 322 1.6 4.8 0.00 0.00 0.00 50 986.1
20260503224007 20 262 1.6 4.8 0.00 0.00 0.00 50 986.2
20260503223908 20 208 1.6 4.8 0.00 0.00 0.00 50 986.2
20260503223808 20 209 1.6 4.8 0.00 0.00 0.00 50 986.2
20260503223708 20 0 1.6 4.8 0.00 0.00 0.00 50 986.1
20260503223608 20 225 1.6 4.8 0.00 0.00 0.00 50 986.1
20260503223537 20 232 1.6 4.8 0.00 0.00 0.00 50 986.1
20260503223512 20 0 1.6 4.8 0.00 0.00 0.00 50 986.2
20260503223407 20 241 1.6 4.8 0.00 0.00 0.00 50 986.2
20260503223308 20 343 1.6 4.8 0.00 0.00 0.00 50 986.2
20260503223208 20 0 1.6 4.8 0.00 0.00 0.00 50 986.2
20260503223108 20 231 1.6 4.8 0.00 0.00 0.00 50 986.2
20260503223038 20 208 1.6 4.8 0.00 0.00 0.00 50 986.2
20260503223008 20 257 1.6 4.8 0.00 0.00 0.00 50 986.2
20260503222908 20 0 1.6 8.0 0.00 0.00 0.00 50 986.2
20260503222807 20 216 1.6 8.0 0.00 0.00 0.00 50 986.3
20260503222709 20 200 1.6 8.0 0.00 0.00 0.00 50 986.3
20260503222609 20 237 1.6 8.0 0.00 0.00 0.00 49 986.3
20260503222538 20 228 1.6 8.0 0.00 0.00 0.00 49 986.3
20260503222509 20 0 1.6 8.0 0.00 0.00 0.00 49 986.3
20260503222408 20 0 1.6 8.0 0.00 0.00 0.00 49 986.3
20260503222308 20 208 1.6 8.0 0.00 0.00 0.00 49 986.3
20260503222207 20 0 1.6 8.0 0.00 0.00 0.00 49 986.3
20260503222105 20 196 1.6 8.0 0.00 0.00 0.00 50 986.4
20260503222037 20 1 1.6 8.0 0.00 0.00 0.00 50 986.4
20260503222005 20 225 1.6 8.0 0.00 0.00 0.00 50 986.3
20260503221905 20 235 1.6 8.0 0.00 0.00 0.00 49 986.3
20260503221807 20 156 1.6 8.0 0.00 0.00 0.00 49 986.4
20260503221754 20 250 1.6 8.0 0.00 0.00 0.00 49 986.4
20260503221709 20 226 1.6 8.0 0.00 0.00 0.00 49 986.4
20260503221654 20 246 1.6 8.0 0.00 0.00 0.00 49 986.4
20260503221505 20 235 1.6 6.4 0.00 0.00 0.00 49 986.4
20260503221405 20 221 1.6 6.4 0.00 0.00 0.00 49 986.4
20260503221305 20 245 1.6 6.4 0.00 0.00 0.00 50 986.4
20260503221205 20 215 1.6 6.4 0.00 0.00 0.00 49 986.4
20260503221035 20 0 1.6 6.4 0.00 0.00 0.00 50 986.4
20260503221005 20 265 1.6 6.4 0.00 0.00 0.00 49 986.4
20260503220905 20 298 3.2 6.4 0.00 0.00 0.00 49 986.4
20260503220804 20 205 3.2 6.4 0.00 0.00 0.00 49 986.4
20260503220705 20 233 3.2 6.4 0.00 0.00 0.00 49 986.4
20260503220604 20 251 3.2 8.0 0.00 0.00 0.00 49 986.5
20260503220535 20 233 3.2 8.0 0.00 0.00 0.00 49 986.5
20260503220504 20 240 3.2 8.0 0.00 0.00 0.00 49 986.5
20260503220405 20 257 3.2 8.0 0.00 0.00 0.00 49 986.5
20260503220304 20 235 3.2 8.0 0.00 0.00 0.00 49 986.5
20260503220204 20 150 3.2 8.0 0.00 0.00 0.00 48 986.5
20260503220108 20 254 3.2 8.0 0.00 0.00 0.00 49 986.4
20260503220036 20 270 3.2 8.0 0.00 0.00 0.00 49 986.4
20260503220005 20 219 3.2 8.0 0.00 0.00 0.00 48 986.4
20260503215905 20 233 3.2 8.0 0.00 0.00 0.00 48 986.4
20260503215805 20 231 3.2 8.0 0.00 0.00 0.00 48 986.4
20260503215705 20 0 3.2 8.0 0.00 0.00 0.00 48 986.4
20260503215605 20 228 3.2 8.0 0.00 0.00 0.00 47 986.5
20260503215535 20 202 3.2 8.0 0.00 0.00 0.00 47 986.5
20260503215505 20 226 3.2 8.0 0.00 0.00 0.00 47 986.5
20260503215405 20 243 3.2 9.7 0.00 0.00 0.00 48 986.5
20260503215310 20 265 3.2 9.7 0.00 0.00 0.00 48 986.5
20260503215305 20 276 3.2 9.7 0.00 0.00 0.00 47 986.5
20260503215221 20 217 3.2 9.7 0.00 0.00 0.00 47 986.4
20260503215152 20 212 3.2 9.7 0.00 0.00 0.00 48 986.5
20260503215006 20 220 3.2 9.7 0.00 0.00 0.00 48 986.5
20260503214904 20 221 3.2 9.7 0.00 0.00 0.00 48 986.5
20260503214800 20 233 3.2 9.7 0.00 0.00 0.00 48 986.5
20260503214701 20 241 3.2 9.7 0.00 0.00 0.00 48 986.5
20260503214557 20 233 3.2 9.7 0.00 0.00 0.00 48 986.5
20260503214532 20 229 3.2 9.7 0.00 0.00 0.00 48 986.5
20260503214455 20 315 3.2 9.7 0.00 0.00 0.00 47 986.4
20260503214355 20 332 3.2 9.7 0.00 0.00 0.00 47 986.5
20260503214254 20 175 3.2 8.0 0.00 0.00 0.00 47 986.5
20260503214155 20 275 3.2 8.0 0.00 0.00 0.00 47 986.4
20260503214051 20 229 3.2 8.0 0.00 0.00 0.00 47 986.5
20260503214032 20 204 3.2 8.0 0.00 0.00 0.00 47 986.5
20260503213952 20 259 3.2 8.0 0.00 0.00 0.00 47 986.4
20260503213852 20 204 3.2 8.0 0.00 0.00 0.00 47 986.4
20260503213749 20 216 3.2 8.0 0.00 0.00 0.00 47 986.4
20260503213649 21 200 3.2 8.0 0.00 0.00 0.00 47 986.4
20260503213550 21 232 3.2 8.0 0.00 0.00 0.00 47 986.4
20260503213530 21 201 3.2 8.0 0.00 0.00 0.00 47 986.4
20260503213449 21 65 3.2 9.7 0.00 0.00 0.00 46 986.4
20260503213347 21 202 3.2 9.7 0.00 0.00 0.00 46 986.4
20260503213246 21 208 3.2 9.7 0.00 0.00 0.00 46 986.5
20260503213144 21 234 3.2 9.7 0.00 0.00 0.00 46 986.5
20260503213043 21 207 3.2 9.7 0.00 0.00 0.00 46 986.5
20260503213030 21 214 3.2 9.7 0.00 0.00 0.00 46 986.5
20260503212940 21 197 4.8 9.7 0.00 0.00 0.00 47 986.5
20260503212839 21 5 4.8 9.7 0.00 0.00 0.00 46 986.5
20260503212737 21 112 4.8 9.7 0.00 0.00 0.00 47 986.5
20260503212637 21 216 4.8 9.7 0.00 0.00 0.00 46 986.5
20260503212544 21 233 4.8 9.7 0.00 0.00 0.00 46 986.5
20260503212533 21 221 4.8 9.7 0.00 0.00 0.00 46 986.5
20260503212437 21 19 4.8 9.7 0.00 0.00 0.00 46 986.5
20260503212337 21 251 4.8 9.7 0.00 0.00 0.00 47 986.6
20260503212238 21 248 3.2 9.7 0.00 0.00 0.00 46 986.5
20260503212138 21 215 3.2 9.7 0.00 0.00 0.00 46 986.5
20260503212043 21 247 3.2 9.7 0.00 0.00 0.00 46 986.6
20260503212032 21 218 3.2 9.7 0.00 0.00 0.00 46 986.6
20260503211937 21 175 3.2 9.7 0.00 0.00 0.00 46 986.6
20260503211837 20 265 3.2 9.7 0.00 0.00 0.00 47 986.6
20260503211738 20 306 3.2 9.7 0.00 0.00 0.00 47 986.6
20260503211638 20 235 3.2 9.7 0.00 0.00 0.00 47 986.5
20260503211544 20 232 3.2 9.7 0.00 0.00 0.00 47 986.6
20260503211533 20 227 3.2 9.7 0.00 0.00 0.00 47 986.6
20260503211437 20 246 3.2 9.7 0.00 0.00 0.00 46 986.6
20260503211337 20 185 3.2 9.7 0.00 0.00 0.00 46 986.5
20260503211238 20 62 3.2 9.7 0.00 0.00 0.00 47 986.6
20260503211138 20 264 3.2 9.7 0.00 0.00 0.00 46 986.5
20260503211034 20 235 3.2 9.7 0.00 0.00 0.00 46 986.6
20260503210937 20 225 3.2 9.7 0.00 0.00 0.00 46 986.6
20260503210837 20 221 3.2 9.7 0.00 0.00 0.00 46 986.6
20260503210737 20 240 3.2 9.7 0.00 0.00 0.00 46 986.6
20260503210638 20 243 3.2 9.7 0.00 0.00 0.00 47 986.6
20260503210544 20 224 3.2 9.7 0.00 0.00 0.00 47 986.6
20260503210533 20 346 3.2 9.7 0.00 0.00 0.00 47 986.6
20260503210438 20 254 3.2 9.7 0.00 0.00 0.00 47 986.6
20260503210337 20 161 3.2 9.7 0.00 0.00 0.00 47 986.5
20260503210237 20 227 3.2 8.0 0.00 0.00 0.00 47 986.6
20260503210138 20 325 3.2 8.0 0.00 0.00 0.00 46 986.6
20260503210044 20 259 3.2 8.0 0.00 0.00 0.00 46 986.5
20260503210034 20 277 3.2 8.0 0.00 0.00 0.00 46 986.5
20260503205937 20 311 3.2 9.7 0.00 0.00 0.00 47 986.5
20260503205838 20 226 3.2 9.7 0.00 0.00 0.00 47 986.5
20260503205738 20 214 3.2 9.7 0.00 0.00 0.00 47 986.5
20260503205638 20 237 3.2 9.7 0.00 0.00 0.00 47 986.5
20260503205544 20 261 3.2 9.7 0.00 0.00 0.00 46 986.6
20260503205533 20 247 3.2 9.7 0.00 0.00 0.00 46 986.6
20260503205437 20 303 3.2 9.7 0.00 0.00 0.00 46 986.6
20260503205338 20 256 3.2 9.7 0.00 0.00 0.00 46 986.5
20260503205238 21 212 3.2 9.7 0.00 0.00 0.00 46 986.6
20260503205137 21 235 3.2 9.7 0.00 0.00 0.00 46 986.6
20260503205033 21 236 3.2 9.7 0.00 0.00 0.00 46 986.6
20260503204937 21 215 3.2 9.7 0.00 0.00 0.00 46 986.7
20260503204837 21 339 3.2 9.7 0.00 0.00 0.00 45 986.6
20260503204738 21 335 3.2 9.7 0.00 0.00 0.00 46 986.6
20260503204634 21 220 3.2 9.7 0.00 0.00 0.00 46 986.7
20260503204537 21 240 3.2 11.3 0.00 0.00 0.00 45 986.6
20260503204531 21 207 3.2 11.3 0.00 0.00 0.00 45 986.6
20260503204429 21 215 4.8 11.3 0.00 0.00 0.00 45 986.7
20260503204329 21 289 3.2 11.3 0.00 0.00 0.00 45 986.7
20260503204227 21 224 4.8 11.3 0.00 0.00 0.00 45 986.7
20260503204127 21 201 4.8 11.3 0.00 0.00 0.00 45 986.7
20260503204038 21 281 4.8 11.3 0.00 0.00 0.00 45 986.8
20260503204032 21 245 3.2 11.3 0.00 0.00 0.00 45 986.8
20260503203926 21 164 3.2 11.3 0.00 0.00 0.00 45 986.8
20260503203824 21 234 3.2 11.3 0.00 0.00 0.00 45 986.8
20260503203724 21 208 3.2 11.3 0.00 0.00 0.00 45 986.8
20260503203624 21 179 3.2 11.3 0.00 0.00 0.00 46 986.8
20260503203531 21 245 3.2 11.3 0.00 0.00 0.00 44 986.8
20260503203523 21 225 3.2 11.3 0.00 0.00 0.00 44 986.8
20260503203424 21 228 3.2 11.3 0.00 0.00 0.00 45 986.8
20260503203321 21 212 3.2 11.3 0.00 0.00 0.00 45 986.8
20260503203221 20 225 3.2 11.3 0.00 0.00 0.00 44 986.9
20260503203120 20 115 3.2 11.3 0.00 0.00 0.00 44 986.9
20260503203029 20 259 3.2 11.3 0.00 0.00 0.00 45 986.9
20260503203021 20 346 3.2 11.3 0.00 0.00 0.00 45 986.9
20260503202922 20 217 3.2 11.3 0.00 0.00 0.00 46 986.9
20260503202821 20 0 3.2 11.3 0.00 0.00 0.00 46 986.9
20260503202718 20 256 3.2 8.0 0.00 0.00 0.00 46 986.9
20260503202617 20 198 3.2 8.0 0.00 0.00 0.00 45 986.9
20260503202527 20 202 4.8 8.0 0.00 0.00 0.00 45 986.9
20260503202517 20 196 3.2 8.0 0.00 0.00 0.00 45 986.9
20260503202417 20 238 3.2 9.7 0.00 0.00 0.00 45 986.9
20260503202318 20 224 4.8 12.9 0.00 0.00 0.00 46 986.7
20260503202215 20 233 4.8 12.9 0.00 0.00 0.00 46 986.7
20260503202114 20 230 4.8 12.9 0.00 0.00 0.00 46 986.7
20260503202027 20 198 4.8 12.9 0.00 0.00 0.00 46 986.7
20260503202011 20 237 4.8 12.9 0.00 0.00 0.00 46 986.7
20260503201912 20 246 4.8 12.9 0.00 0.00 0.00 46 986.7
20260503201811 20 237 4.8 12.9 0.00 0.00 0.00 46 986.8
20260503201711 20 217 4.8 12.9 0.00 0.00 0.00 46 986.8
20260503201611 20 275 3.2 12.9 0.00 0.00 0.00 46 987.0
20260503201525 20 227 3.2 12.9 0.00 0.00 0.00 45 987.1
20260503201511 20 267 3.2 12.9 0.00 0.00 0.00 45 987.1
20260503201411 20 191 3.2 12.9 0.00 0.00 0.00 46 987.2
20260503201324 20 218 3.2 9.7 0.00 0.00 0.00 45 987.3
20260503201211 20 7 3.2 9.7 0.00 0.00 0.00 45 987.4
20260503201111 20 223 3.2 9.7 0.00 0.00 0.00 45 987.3
20260503201025 20 233 3.2 9.7 0.00 0.00 0.00 45 987.3
20260503201011 20 267 3.2 9.7 0.00 0.00 0.00 45 987.3
20260503200924 20 194 3.2 8.0 0.00 0.00 0.00 45 987.4
20260503200812 20 219 3.2 8.0 0.00 0.00 0.00 45 987.4
20260503200712 20 29 3.2 12.9 0.00 0.00 0.00 45 987.4
20260503200610 20 0 3.2 12.9 0.00 0.00 0.00 46 987.4
20260503200526 20 235 3.2 12.9 0.00 0.00 0.00 45 987.4
20260503200511 20 233 3.2 12.9 0.00 0.00 0.00 45 987.4
20260503200412 20 203 3.2 12.9 0.00 0.00 0.00 45 987.3
20260503200311 20 239 3.2 12.9 0.00 0.00 0.00 45 987.3
20260503200211 20 330 3.2 12.9 0.00 0.00 0.00 45 987.4
20260503200112 20 211 4.8 12.9 0.00 0.00 0.00 44 987.3
20260503200025 20 310 4.8 12.9 0.00 0.00 0.00 44 987.3
20260503200011 20 219 4.8 12.9 0.00 0.00 0.00 44 987.3
20260503195912 20 270 4.8 14.5 0.00 0.00 0.00 44 987.2
20260503195812 20 217 4.8 14.5 0.00 0.00 0.00 44 987.2
20260503195712 20 218 4.8 14.5 0.00 0.00 0.00 45 987.2
20260503195611 20 315 4.8 14.5 0.00 0.00 0.00 45 987.1
20260503195525 20 297 4.8 14.5 0.00 0.00 0.00 44 987.1
20260503195512 20 306 4.8 14.5 0.00 0.00 0.00 44 987.1
20260503195413 20 286 4.8 14.5 0.00 0.00 0.00 44 987.0
20260503195312 21 221 4.8 14.5 0.00 0.00 0.00 44 987.1
20260503195247 21 231 4.8 14.5 0.00 0.00 0.00 43 987.0
20260503195212 21 260 4.8 14.5 0.00 0.00 0.00 44 987.1
20260503195156 21 180 4.8 14.5 0.00 0.00 0.00 43 987.0
20260503195012 21 265 4.8 14.5 0.00 0.00 0.00 43 987.0
20260503194912 21 236 4.8 12.9 0.00 0.00 0.00 43 987.1
20260503194810 21 222 4.8 12.9 0.00 0.00 0.00 42 987.1
20260503194745 21 235 4.8 12.9 0.00 0.00 0.00 42 987.2
20260503194710 21 262 4.8 12.9 0.00 0.00 0.00 43 987.0
20260503194641 21 164 4.8 12.9 0.00 0.00 0.00 42 987.2
20260503194510 21 261 4.8 12.9 0.00 0.00 0.00 42 987.2
20260503194410 21 160 4.8 12.9 0.00 0.00 0.00 43 987.2
20260503194309 21 312 4.8 12.9 0.00 0.00 0.00 43 987.2
20260503194209 21 270 4.8 12.9 0.00 0.00 0.00 42 987.3
20260503194112 21 230 6.4 14.5 0.00 0.00 0.00 43 987.4
20260503194022 21 171 6.4 14.5 0.00 0.00 0.00 43 987.4
20260503194009 21 91 6.4 14.5 0.00 0.00 0.00 42 987.6
20260503193909 21 198 6.4 14.5 0.00 0.00 0.00 43 987.6
20260503193809 21 287 4.8 14.5 0.00 0.00 0.00 43 987.6
20260503193710 21 327 4.8 14.5 0.00 0.00 0.00 42 987.6
20260503193610 21 162 4.8 14.5 0.00 0.00 0.00 42 987.6
20260503193521 21 240 4.8 14.5 0.00 0.00 0.00 42 987.6
20260503193510 21 278 4.8 14.5 0.00 0.00 0.00 42 987.7
20260503193408 21 214 4.8 14.5 0.00 0.00 0.00 42 987.6
20260503193309 21 233 4.8 14.5 0.00 0.00 0.00 42 987.6
20260503193209 21 220 4.8 14.5 0.00 0.00 0.00 42 987.7
20260503193109 21 217 4.8 12.9 0.00 0.00 0.00 42 987.6
20260503193020 21 200 4.8 12.9 0.00 0.00 0.00 42 987.6
20260503193009 21 230 4.8 12.9 0.00 0.00 0.00 43 987.6
20260503192909 21 257 4.8 12.9 0.00 0.00 0.00 42 987.5
20260503192809 21 221 4.8 12.9 0.00 0.00 0.00 42 987.4
20260503192709 21 191 4.8 12.9 0.00 0.00 0.00 42 987.4
20260503192609 21 214 4.8 12.9 0.00 0.00 0.00 41 987.4
20260503192521 21 228 4.8 12.9 0.00 0.00 0.00 41 987.4
20260503192510 21 216 4.8 12.9 0.00 0.00 0.00 42 987.3
20260503192410 22 307 4.8 12.9 0.00 0.00 0.00 42 987.3
20260503192310 22 202 4.8 12.9 0.00 0.00 0.00 41 987.3
20260503192210 22 209 4.8 12.9 0.00 0.00 0.00 41 987.3
20260503192125 22 159 4.8 12.9 0.00 0.00 0.00 42 987.4
20260503192021 22 204 4.8 12.9 0.00 0.00 0.00 42 987.4
20260503192009 22 258 4.8 12.9 0.00 0.00 0.00 41 987.5
20260503191909 22 221 4.8 12.9 0.00 0.00 0.00 40 987.5
20260503191807 22 243 4.8 12.9 0.00 0.00 0.00 41 987.5
20260503191742 22 256 4.8 11.3 0.00 0.00 0.00 42 987.6
20260503191707 22 241 4.8 11.3 0.00 0.00 0.00 42 987.8
20260503191639 22 254 4.8 11.3 0.00 0.00 0.00 42 987.6
20260503191507 21 230 4.8 11.3 0.00 0.00 0.00 42 987.5
20260503191407 21 216 4.8 11.3 0.00 0.00 0.00 41 987.7
20260503191307 21 216 4.8 11.3 0.00 0.00 0.00 41 987.7
20260503191207 21 266 4.8 11.3 0.00 0.00 0.00 41 987.7
20260503191107 21 211 4.8 11.3 0.00 0.00 0.00 42 987.7
20260503191021 21 239 4.8 11.3 0.00 0.00 0.00 42 987.7
20260503191008 21 202 4.8 11.3 0.00 0.00 0.00 42 987.7
20260503190908 21 310 4.8 11.3 0.00 0.00 0.00 42 987.7
20260503190808 21 216 4.8 11.3 0.00 0.00 0.00 42 987.6
20260503190747 21 255 4.8 11.3 0.00 0.00 0.00 42 987.4
20260503190707 21 219 4.8 11.3 0.00 0.00 0.00 42 987.6
20260503190639 21 218 4.8 11.3 0.00 0.00 0.00 42 987.4
20260503190508 21 177 4.8 11.3 0.00 0.00 0.00 42 987.4
20260503190407 21 174 4.8 12.9 0.00 0.00 0.00 42 987.5
20260503190307 21 248 4.8 12.9 0.00 0.00 0.00 42 987.5
20260503190207 21 272 4.8 12.9 0.00 0.00 0.00 42 987.6
20260503190115 21 227 4.8 14.5 0.00 0.00 0.00 42 987.4
20260503190020 21 205 4.8 14.5 0.00 0.00 0.00 42 987.4
20260503190007 21 184 4.8 14.5 0.00 0.00 0.00 42 987.5
20260503185907 21 275 4.8 14.5 0.00 0.00 0.00 42 987.4
20260503185807 21 205 4.8 14.5 0.00 0.00 0.00 43 987.5
20260503185708 21 222 4.8 14.5 0.00 0.00 0.00 43 987.5
20260503185607 21 279 4.8 14.5 0.00 0.00 0.00 42 987.6
20260503185520 21 71 4.8 14.5 0.00 0.00 0.00 42 987.6
20260503185507 21 132 4.8 14.5 0.00 0.00 0.00 42 987.6
20260503185407 21 238 4.8 14.5 0.00 0.00 0.00 42 987.6
20260503185307 21 206 4.8 14.5 0.00 0.00 0.00 42 987.6
20260503185208 20 307 4.8 14.5 0.00 0.00 0.00 42 987.6
20260503185108 20 223 4.8 14.5 0.00 0.00 0.00 42 987.5
20260503185021 20 220 3.2 11.3 0.00 0.00 0.00 42 987.5
20260503185008 20 2 3.2 11.3 0.00 0.00 0.00 42 987.6
20260503184907 20 223 3.2 11.3 0.00 0.00 0.00 42 987.6
20260503184807 20 0 3.2 11.3 0.00 0.00 0.00 43 987.7
20260503184707 20 184 4.8 11.3 0.00 0.00 0.00 42 987.7
20260503184607 20 249 4.8 11.3 0.00 0.00 0.00 42 987.7
20260503184519 20 0 4.8 11.3 0.00 0.00 0.00 42 987.7
20260503184504 20 225 4.8 11.3 0.00 0.00 0.00 42 987.7
20260503184401 20 208 3.2 11.3 0.00 0.00 0.00 42 987.7
20260503184301 20 236 3.2 11.3 0.00 0.00 0.00 43 987.6
20260503184159 20 290 3.2 11.3 0.00 0.00 0.00 44 987.6
20260503184057 20 348 3.2 11.3 0.00 0.00 0.00 43 987.7
20260503184021 20 349 3.2 11.3 0.00 0.00 0.00 43 987.7
20260503183958 20 271 3.2 11.3 0.00 0.00 0.00 44 987.7
20260503183855 20 243 3.2 11.3 0.00 0.00 0.00 43 987.7
20260503183755 20 8 3.2 14.5 0.00 0.00 0.00 44 987.7
20260503183652 19 263 3.2 14.5 0.00 0.00 0.00 45 987.9
20260503183552 19 268 3.2 14.5 0.00 0.00 0.00 46 988.0
20260503183520 19 336 3.2 14.5 0.00 0.00 0.00 46 988.0
20260503183452 19 263 3.2 14.5 0.00 0.00 0.00 46 988.0
20260503183351 19 29 4.8 14.5 0.00 0.00 0.00 44 988.1
20260503183251 19 320 4.8 14.5 0.00 0.00 0.00 44 988.1
20260503183151 19 0 4.8 14.5 0.00 0.00 0.00 44 988.1
20260503183049 19 229 4.8 14.5 0.00 0.00 0.00 44 988.2
20260503183020 19 247 4.8 14.5 0.00 0.00 0.00 44 988.2
20260503182949 19 206 4.8 14.5 0.00 0.00 0.00 43 988.1
20260503182848 19 207 4.8 14.5 0.00 0.00 0.00 43 988.1
20260503182749 19 220 4.8 14.5 0.00 0.00 0.00 43 988.0
20260503182648 19 262 4.8 14.5 0.00 0.00 0.00 44 988.1
20260503182548 19 221 4.8 14.5 0.00 0.00 0.00 44 988.0
20260503182518 19 234 4.8 14.5 0.00 0.00 0.00 44 988.0
20260503182447 18 187 4.8 14.5 0.00 0.00 0.00 44 988.0
20260503182347 18 266 4.8 14.5 0.00 0.00 0.00 44 987.9
20260503182247 18 243 4.8 14.5 0.00 0.00 0.00 44 987.8
20260503182147 18 152 4.8 14.5 0.00 0.00 0.00 44 988.0
20260503182047 19 216 4.8 14.5 0.00 0.00 0.00 44 988.0
20260503182030 19 220 4.8 14.5 0.00 0.00 0.00 44 988.0
20260503181947 19 271 4.8 9.7 0.00 0.00 0.00 44 987.9
20260503181847 19 295 4.8 9.7 0.00 0.00 0.00 44 988.0
20260503181743 19 213 3.2 9.7 0.00 0.00 0.00 44 988.1
20260503181643 19 256 4.8 9.7 0.00 0.00 0.00 44 988.1
20260503181542 19 316 4.8 11.3 0.00 0.00 0.00 44 988.2
20260503181518 19 211 4.8 11.3 0.00 0.00 0.00 44 988.2
20260503181443 19 257 4.8 11.3 0.00 0.00 0.00 44 988.2
20260503181343 19 259 4.8 14.5 0.00 0.00 0.00 44 988.3
20260503181243 19 257 4.8 14.5 0.00 0.00 0.00 44 988.2
20260503181143 19 230 3.2 14.5 0.00 0.00 0.00 44 988.5
20260503181043 19 191 3.2 14.5 0.00 0.00 0.00 44 988.6
20260503181018 19 243 3.2 14.5 0.00 0.00 0.00 44 988.6
20260503180943 19 258 3.2 14.5 0.00 0.00 0.00 45 988.5
20260503180843 18 210 3.2 14.5 0.00 0.00 0.00 45 988.5
20260503180755 18 279 4.8 14.5 0.00 0.00 0.00 46 988.5
20260503180643 18 177 4.8 14.5 0.00 0.00 0.00 47 988.6
20260503180543 18 252 4.8 14.5 0.00 0.00 0.00 46 988.7
20260503180517 18 352 4.8 14.5 0.00 0.00 0.00 46 988.7
20260503180456 18 43 4.8 14.5 0.00 0.00 0.00 45 988.6
20260503180343 19 179 4.8 14.5 0.00 0.00 0.00 46 988.6
20260503180243 19 226 4.8 12.9 0.00 0.00 0.00 46 988.7
20260503180143 19 226 4.8 12.9 0.00 0.00 0.00 46 988.5
20260503180043 18 312 4.8 12.9 0.00 0.00 0.00 45 988.5
20260503180018 18 179 4.8 12.9 0.00 0.00 0.00 45 988.5
20260503175943 18 216 4.8 12.9 0.00 0.00 0.00 45 988.5
20260503175843 18 239 3.2 12.9 0.00 0.00 0.00 46 988.5
20260503175743 18 302 3.2 9.7 0.00 0.00 0.00 46 988.5
20260503175644 18 188 3.2 9.7 0.00 0.00 0.00 47 988.5
20260503175543 18 190 3.2 9.7 0.00 0.00 0.00 48 988.5
20260503175518 18 31 3.2 9.7 0.00 0.00 0.00 48 988.5
20260503175443 18 348 3.2 9.7 0.00 0.00 0.00 47 988.6
20260503175344 18 220 3.2 9.7 0.00 0.00 0.00 47 988.6
20260503175243 18 238 3.2 9.7 0.00 0.00 0.00 47 988.5
20260503175143 18 226 3.2 9.7 0.00 0.00 0.00 46 988.6
20260503175044 18 297 3.2 9.7 0.00 0.00 0.00 46 988.6
20260503175019 18 323 3.2 9.7 0.00 0.00 0.00 46 988.6
20260503174956 18 223 3.2 9.7 0.00 0.00 0.00 46 988.7
20260503174843 18 219 3.2 9.7 0.00 0.00 0.00 46 988.7
20260503174743 18 265 3.2 9.7 0.00 0.00 0.00 46 988.8
20260503174641 18 284 3.2 9.7 0.00 0.00 0.00 47 988.6
20260503174540 18 266 3.2 9.7 0.00 0.00 0.00 48 988.8
20260503174518 18 330 3.2 9.7 0.00 0.00 0.00 48 988.8
20260503174440 18 195 3.2 9.7 0.00 0.00 0.00 47 988.8
20260503174338 18 305 3.2 9.7 0.00 0.00 0.00 46 988.9
20260503174237 18 226 3.2 9.7 0.00 0.00 0.00 47 988.9
20260503174137 18 26 3.2 9.7 0.00 0.00 0.00 47 988.9
20260503174037 18 322 3.2 9.7 0.00 0.00 0.00 47 989.0
20260503174016 18 225 3.2 9.7 0.00 0.00 0.00 47 989.0
20260503173935 18 246 3.2 11.3 0.00 0.00 0.00 48 989.0
20260503173832 18 259 3.2 11.3 0.00 0.00 0.00 49 989.0
20260503173729 18 218 3.2 11.3 0.00 0.00 0.00 49 989.0
20260503173629 18 271 3.2 11.3 0.00 0.00 0.00 50 989.0
20260503173530 17 77 3.2 11.3 0.00 0.00 0.00 49 989.1
20260503173513 17 339 3.2 11.3 0.00 0.00 0.00 49 989.1
20260503173427 17 256 3.2 11.3 0.00 0.00 0.00 48 989.1
20260503173327 17 227 3.2 11.3 0.00 0.00 0.00 49 989.1
20260503173221 17 245 3.2 11.3 0.00 0.00 0.00 48 989.2
20260503173124 17 235 3.2 11.3 0.00 0.00 0.00 48 989.2
20260503173021 17 227 4.8 11.3 0.00 0.00 0.00 49 989.2
20260503172921 17 228 3.2 9.7 0.00 0.00 0.00 50 989.3
20260503172834 17 243 3.2 9.7 0.00 0.00 0.00 51 989.4
20260503172750 17 231 3.2 9.7 0.00 0.00 0.00 50 989.4
20260503172721 17 240 3.2 9.7 0.00 0.00 0.00 51 989.4
20260503172644 17 20 3.2 9.7 0.00 0.00 0.00 51 989.5
20260503172625 17 231 3.2 9.7 0.00 0.00 0.00 50 989.4
20260503172414 17 354 3.2 8.0 0.00 0.00 0.00 49 989.5
20260503172313 17 221 3.2 8.0 0.00 0.00 0.00 50 989.6
20260503172214 17 227 3.2 8.0 0.00 0.00 0.00 50 989.7
20260503172114 16 264 3.2 8.0 0.00 0.00 0.00 49 989.7
20260503172030 16 303 3.2 6.4 0.00 0.00 0.00 50 989.9
20260503172014 16 235 3.2 8.0 0.00 0.00 0.00 49 989.8
20260503171914 16 204 3.2 8.0 0.00 0.00 0.00 49 989.8
20260503171858 16 275 3.2 6.4 0.00 0.00 0.00 50 990.0
20260503171714 16 211 3.2 6.4 0.00 0.00 0.00 50 990.0
20260503171638 16 174 3.2 6.4 0.00 0.00 0.00 50 990.0
20260503171619 16 303 3.2 6.4 0.00 0.00 0.00 50 989.9
20260503171414 16 242 3.2 6.4 0.00 0.00 0.00 51 990.0
20260503171327 16 7 3.2 6.4 0.00 0.00 0.00 50 990.0
20260503171214 16 79 3.2 6.4 0.00 0.00 0.00 50 990.0
20260503171114 16 313 3.2 6.4 0.00 0.00 0.00 50 990.1
20260503171013 16 10 3.2 6.4 0.00 0.00 0.00 50 990.1
20260503170927 16 233 1.6 6.4 0.00 0.00 0.00 50 990.1
20260503170814 16 192 1.6 6.4 0.00 0.00 0.00 50 990.1
20260503170732 16 333 1.6 4.8 0.00 0.00 0.00 51 990.1
20260503170715 16 162 1.6 6.4 0.00 0.00 0.00 51 990.1
20260503170638 16 269 1.6 4.8 0.00 0.00 0.00 52 990.1
20260503170619 16 333 1.6 4.8 0.00 0.00 0.00 51 990.1
20260503170414 16 281 1.6 4.8 0.00 0.00 0.00 51 990.1
20260503170314 16 281 1.6 4.8 0.00 0.00 0.00 52 990.1
20260503170213 16 349 1.6 4.8 0.00 0.00 0.00 52 990.1
20260503170127 16 278 1.6 4.8 0.00 0.00 0.00 53 990.2
20260503160217 14 325 3.2 4.8 0.00 0.00 0.00 56 991.3
20260503160116 14 356 1.6 4.8 0.00 0.00 0.00 56 991.4
20260503150917 14 0 1.6 6.4 0.00 0.00 0.00 57 992.5
20260503150817 14 0 1.6 8.0 0.00 0.00 0.00 57 992.5
20260503150717 14 0 3.2 8.0 0.00 0.00 0.00 57 992.6
20260503150618 14 238 3.2 8.0 0.00 0.00 0.00 56 992.6
20260503150517 14 23 3.2 8.0 0.00 0.00 0.00 56 992.6
20260503150424 14 0 3.2 8.0 0.00 0.00 0.00 56 992.6
20260503150417 14 230 3.2 8.0 0.00 0.00 0.00 56 992.6
20260503150317 14 230 3.2 8.0 0.00 0.00 0.00 56 992.6
20260503150217 14 224 3.2 8.0 0.00 0.00 0.00 56 992.5
20260503150118 13 261 3.2 8.0 0.00 0.00 0.00 57 992.5
20260503140217 11 222 0.0 3.2 0.00 0.00 0.00 67 993.3
20260503140117 11 173 1.6 3.2 0.00 0.00 0.00 67 993.3
20260503131418 9 235 1.6 4.8 0.00 0.00 0.00 71 994.0
20260503131318 9 235 3.2 4.8 0.00 0.00 0.00 71 994.0
20260503131218 9 236 3.2 4.8 0.00 0.00 0.00 71 994.0
20260503131118 9 240 1.6 4.8 0.00 0.00 0.00 71 994.0
20260503131019 9 235 1.6 4.8 0.00 0.00 0.00 71 994.0
20260503130918 9 287 1.6 4.8 0.00 0.00 0.00 71 994.0
20260503130841 9 287 1.6 4.8 0.00 0.00 0.00 71 994.0
20260503130821 9 227 1.6 4.8 0.00 0.00 0.00 71 994.0
20260503130718 9 218 1.6 4.8 0.00 0.00 0.00 71 994.0
20260503130618 9 215 1.6 4.8 0.00 0.00 0.00 71 994.0
20260503130521 9 228 1.6 4.8 0.00 0.00 0.00 71 994.1
20260503130419 9 262 1.6 4.8 0.00 0.00 0.00 71 994.0
20260503130341 9 222 1.6 4.8 0.00 0.00 0.00 71 994.0
20260503130318 9 242 1.6 4.8 0.00 0.00 0.00 71 994.0
20260503130220 9 217 1.6 4.8 0.00 0.00 0.00 72 994.0
20260503130120 9 6 1.6 4.8 0.00 0.00 0.00 71 994.0